Theta_e
347 342 340 340 340 340 340 342 338 338 340 340 341 341 341 338 339 337 334 336 334 334 337 329 337 340 335 337 340 340 340 340 339 340 337 334 334 336 343 345 346 343 332
347 346 337 336 339 340 343 341 339 339 335 338 338 339 339 339 338 335 336 338 334 329 339 340 339 338 339 340 340 341 341 341 340 341 342 342 342 341 342 343 343 343 340
347 344 336 334 332 331 333 336 338 336 335 336 339 340 340 339 337 336 339 337 329 339 339 339 332 337 338 337 339 338 339 339 341 345 345 345 344 341 342 340 341 341 339
346 347 347 336 332 336 335 331 330 334 335 335 337 341 342 340 339 335 338 324 326 332 327 337 337 336 332 338 337 337 334 333 339 343 344 346 346 340 341 340 341 341 340
347 349 338 333 332 330 331 335 334 335 337 336 339 341 342 339 339 336 338 334 331 335 340 338 336 337 336 336 335 335 336 326 341 346 346 346 346 343 341 343 343 340 342
347 348 335 331 329 328 327 328 329 330 336 335 336 342 341 339 340 337 339 340 340 340 340 338 336 333 336 332 332 331 332 341 343 341 341 340 342 331 330 340 339 338 340
347 347 345 335 342 339 330 336 334 328 331 337 338 340 341 340 340 334 339 340 340 339 338 337 335 332 330 329 329 328 331 342 344 341 340 340 333 327 337 337 340 341 342
346 349 346 335 337 339 335 336 338 332 336 336 335 340 340 339 336 337 338 339 340 339 338 338 338 333 331 328 325 329 330 340 343 341 340 338 323 323 325 335 333 329 330
345 347 347 345 341 340 334 334 337 338 335 336 337 340 341 340 335 332 335 336 340 339 340 340 338 336 332 331 328 325 330 339 342 341 340 343 327 325 325 326 327 328 328
344 347 348 347 348 346 346 339 337 339 336 337 339 341 341 339 338 331 333 337 339 340 339 339 340 338 336 331 329 327 334 339 342 341 341 340 336 333 326 325 326 327 327
343 344 348 345 345 348 349 341 339 338 338 337 339 340 342 342 345 347 339 339 340 341 342 342 342 341 336 331 328 332 336 336 339 339 335 323 323 323 324 325 326 326 326
344 345 346 344 345 347 348 343 345 346 346 343 346 343 347 346 346 347 335 338 339 341 342 341 342 344 344 342 343 338 336 336 336 337 327 324 324 325 326 326 326 326 325
346 345 345 345 346 347 343 346 346 345 344 344 342 347 347 348 346 345 343 344 342 344 345 346 347 345 344 343 342 341 340 338 337 337 327 326 326 326 325 325 324 323 323
345 345 345 345 347 349 345 345 342 341 342 343 345 346 347 347 345 344 343 344 345 345 342 346 345 340 344 346 345 344 343 340 338 337 328 325 324 324 323 323 324 327 332
345 345 346 346 347 346 347 344 342 342 341 343 345 346 346 344 345 346 347 346 346 347 345 346 345 344 344 345 346 346 344 344 342 340 337 327 325 326 327 330 335 339 340
345 345 347 346 346 345 345 345 344 343 343 343 344 342 345 345 347 347 346 346 347 347 347 346 345 344 343 344 345 346 347 346 346 345 342 336 331 329 333 337 339 340 341
345 346 347 346 345 346 345 344 343 343 343 344 344 342 342 346 343 347 348 348 346 347 348 346 344 342 340 341 343 343 345 347 346 347 346 345 341 335 337 339 340 342 343
346 347 346 343 346 347 348 346 343 344 344 344 344 345 341 340 340 345 348 347 347 347 345 344 344 343 343 343 344 344 346 347 347 348 347 347 346 345 343 340 342 343 344
348 349 348 347 347 347 344 345 346 341 345 345 345 346 341 339 339 347 347 346 344 347 345 345 347 347 345 345 343 344 346 346 345 345 347 348 346 347 346 341 344 346 348
348 350 349 349 348 347 347 344 347 348 347 345 345 345 339 345 339 346 347 346 346 347 345 347 348 347 347 347 343 343 346 346 346 346 345 345 344 346 345 344 350 350 349
348 349 350 350 342 348 348 347 347 347 348 348 347 347 337 342 340 342 348 344 347 348 347 350 348 347 345 345 345 343 343 345 346 345 345 344 344 345 345 347 350 351 351
350 349 350 350 345 345 347 349 349 348 348 348 349 346 349 345 340 344 348 348 347 348 350 350 346 345 345 346 347 345 344 344 344 343 344 343 345 344 345 348 349 348 352
350 351 350 350 347 344 349 348 346 348 348 348 348 348 347 348 348 344 342 348 342 348 348 350 348 346 345 348 345 347 344 344 344 343 343 343 346 344 345 346 348 349 348
349 351 351 350 349 344 345 350 345 347 347 348 348 349 349 349 349 347 347 342 342 348 349 346 348 348 348 346 349 350 351 351 348 345 344 345 344 346 347 345 347 350 349
349 350 350 350 349 350 346 344 345 348 348 349 349 348 349 345 348 348 348 341 341 347 346 347 344 345 348 348 348 351 351 353 351 349 346 347 346 348 349 348 349 349 352
349 349 350 349 342 347 343 344 343 349 347 345 349 344 349 347 348 346 349 345 341 349 345 345 342 343 349 347 350 351 350 351 350 348 348 348 348 349 350 351 351 352 352
Wind_Speed
14 15 17 15 15 15 15 15 15 14 14 14 14 14 15 16 16 17 18 18 18 18 19 19 19 19 17 18 17 17 17 17 17 17 17 17 17 16 15 18 17 13 16
18 15 16 15 15 15 14 14 15 14 13 13 14 13 15 16 17 17 18 18 18 19 18 18 19 18 17 17 16 16 16 16 17 20 19 17 18 17 16 17 16 15 15
18 16 15 14 14 14 13 13 13 12 12 13 13 14 15 16 17 17 18 17 18 18 19 18 17 16 16 15 15 15 15 16 19 21 21 16 16 17 18 18 17 16 16
18 15 13 13 13 13 12 11 11 11 11 12 13 13 15 15 17 16 17 18 17 16 19 18 17 17 16 14 15 15 15 15 17 21 15 16 15 17 19 17 17 16 15
18 15 15 13 11 10 9 9 9 9 9 10 11 14 13 14 15 16 18 18 18 18 17 17 16 16 15 14 15 15 15 16 22 14 15 14 13 15 16 17 16 15 16
16 13 14 12 11 10 9 8 7 8 9 10 11 12 14 13 15 16 16 16 16 14 15 15 14 15 14 14 14 14 15 20 16 15 13 14 14 15 14 16 17 16 15
15 12 11 12 9 9 10 10 9 9 9 10 11 13 13 13 15 15 15 16 15 17 16 16 16 15 14 14 15 15 16 19 13 15 14 13 14 14 15 14 12 13 14
14 12 10 10 9 9 9 9 9 10 9 9 11 13 13 13 14 15 15 15 15 16 18 17 17 17 16 15 15 15 16 18 15 13 14 14 15 14 13 13 13 11 11
13 11 10 8 9 10 10 9 9 9 10 11 11 13 12 13 15 15 14 14 15 17 17 17 17 17 17 16 16 15 16 20 13 12 11 11 15 14 14 13 12 12 11
12 10 10 10 8 9 8 10 11 10 10 11 11 13 13 13 14 14 14 14 16 15 16 16 16 17 18 16 15 15 18 19 12 12 10 13 11 12 12 12 11 12 11
12 11 9 9 9 10 10 10 10 11 11 12 11 13 13 13 13 15 13 15 15 17 16 17 17 16 16 17 16 17 18 10 10 10 8 11 11 11 11 11 11 11 11
13 12 10 10 9 10 8 11 13 10 9 11 12 12 11 13 13 10 13 14 14 13 13 14 13 16 14 9 9 15 9 10 10 10 9 10 11 11 11 11 11 12 12
13 12 10 11 10 9 9 9 8 9 9 9 13 13 11 11 12 11 10 9 9 11 7 8 8 7 8 10 10 11 11 10 10 9 11 11 11 12 12 12 12 12 12
14 12 11 10 11 10 10 9 10 10 11 10 11 12 11 10 11 11 10 9 8 7 11 10 9 11 9 9 9 11 11 10 10 9 11 12 13 13 13 13 13 13 13
13 12 11 10 11 10 13 12 10 12 12 12 11 11 11 11 12 11 11 8 8 7 6 8 9 10 11 9 8 9 9 9 10 9 8 14 13 14 14 14 14 15 15
13 13 12 11 11 11 10 12 11 11 13 12 11 11 13 11 11 10 9 7 7 7 5 4 5 7 7 7 7 7 8 8 9 9 8 10 13 14 14 14 15 15 16
13 13 12 12 12 12 11 12 11 11 11 11 11 14 14 11 11 10 7 7 5 5 7 6 6 6 6 6 7 6 7 7 7 7 7 7 7 12 13 14 15 15 16
14 14 13 13 13 13 12 12 11 13 11 11 12 12 12 8 9 7 6 5 4 6 6 6 7 6 6 6 7 7 6 7 6 6 6 6 5 5 9 12 14 14 15
14 15 14 14 13 13 13 11 11 12 12 11 12 10 10 9 8 7 7 5 6 5 5 5 6 6 7 7 6 6 5 5 5 4 4 5 4 6 5 8 13 14 14
14 14 14 15 14 14 12 11 10 9 10 11 11 9 10 7 9 7 5 5 5 4 4 4 6 6 5 4 4 4 4 4 4 4 3 5 2 4 4 7 7 7 13
14 15 14 14 17 15 12 11 9 9 9 9 10 10 11 9 8 8 5 4 7 5 5 4 5 6 5 4 4 4 4 4 5 4 4 4 3 4 3 5 6 5 6
15 14 16 14 15 14 14 12 9 9 9 8 9 10 10 9 10 6 7 6 9 4 4 5 6 5 5 6 4 4 4 5 4 3 4 5 5 5 4 4 5 7 6
16 15 15 16 14 14 12 10 10 10 9 7 8 8 9 9 9 9 7 9 8 8 3 4 4 6 4 5 8 4 2 4 2 3 4 3 5 3 4 4 4 4 6
17 15 14 15 14 15 13 12 9 7 7 7 7 8 9 10 9 9 8 8 10 6 6 2 2 5 6 3 5 6 7 6 2 6 4 3 4 3 3 3 4 5 6
17 17 15 15 15 14 14 12 9 6 6 4 7 8 10 10 10 10 10 9 8 5 6 6 3 4 3 4 4 4 6 6 8 2 5 3 4 3 4 4 4 4 6
18 17 17 17 17 14 14 13 9 7 7 7 8 7 7 8 9 12 10 10 10 9 6 4 5 4 4 4 4 5 5 4 5 4 3 3 2 2 3 3 3 5 5
Wind_Direction
137 139 128 120 117 111 108 106 103 101 95 92 90 89 87 89 89 89 93 92 91 93 91 92 93 91 92 92 89 88 86 87 87 84 84 81 82 84 85 89 88 98 99
139 139 131 124 116 112 108 106 104 100 95 91 92 89 92 89 90 93 94 96 96 102 97 96 95 89 86 84 80 83 84 86 89 84 73 72 78 78 84 100 106 98 96
137 135 130 125 122 116 114 111 106 102 93 90 86 90 89 92 91 96 91 90 101 97 98 95 88 90 87 89 82 83 83 88 85 76 75 68 74 77 81 84 90 93 93
136 134 131 128 124 119 116 110 107 101 98 92 86 89 89 93 91 94 93 97 105 100 97 93 88 85 86 88 86 88 85 85 85 79 77 71 71 79 78 80 84 84 87
137 141 141 132 127 125 120 113 111 111 103 97 87 88 92 95 95 99 99 98 98 99 92 86 83 83 83 86 81 85 81 79 77 66 89 78 79 78 81 77 75 82 85
137 138 132 129 126 123 126 127 122 121 110 109 101 91 96 100 101 104 101 98 92 90 90 90 84 84 85 83 82 84 80 73 67 75 68 73 76 78 88 84 79 80 79
137 137 131 127 127 117 120 122 121 127 124 111 112 101 95 98 104 111 105 100 91 91 93 85 81 82 83 82 82 81 84 88 80 75 71 71 74 82 81 81 83 85 77
138 135 134 131 130 123 116 122 113 119 120 117 117 108 108 101 104 112 110 105 99 95 88 82 76 77 79 76 77 79 79 86 76 74 76 72 72 74 76 80 75 77 74
139 138 128 122 126 118 119 119 117 118 125 119 119 114 110 103 106 117 116 111 107 101 90 81 77 75 74 74 74 77 76 88 82 84 73 70 68 69 71 73 71 68 65
142 135 138 129 129 105 104 119 120 119 124 125 124 118 116 109 106 106 116 112 107 98 84 79 78 73 70 69 71 73 71 65 68 66 76 81 81 66 68 69 67 65 64
141 139 139 130 125 128 117 119 115 120 124 126 117 121 122 118 111 104 134 112 108 98 88 79 73 68 67 64 66 70 67 74 76 79 72 76 74 72 70 68 67 67 63
149 142 143 137 132 124 125 126 122 110 123 124 129 120 106 111 117 119 123 115 108 96 80 71 65 60 66 66 48 52 74 70 74 70 67 70 74 71 70 69 67 65 64
149 149 149 151 137 137 128 112 110 111 118 125 121 120 114 109 106 108 112 111 103 86 79 63 51 69 74 76 75 75 71 76 68 74 62 67 70 69 69 68 67 68 70
155 154 158 150 139 131 125 120 121 126 129 128 136 125 112 113 121 118 124 119 100 90 86 67 55 87 83 82 77 81 69 75 77 75 55 69 71 73 74 75 77 78 77
158 161 159 154 142 138 134 125 123 116 124 136 127 131 127 126 120 120 118 119 99 83 78 68 63 82 78 85 79 77 72 72 73 79 66 71 77 81 81 83 83 80 75
162 164 164 155 149 145 141 131 120 126 132 132 131 134 125 126 123 118 115 108 95 92 82 70 82 86 81 80 75 77 76 72 72 80 79 63 74 79 84 84 81 76 70
162 164 164 157 155 146 140 120 127 121 128 132 140 133 133 122 130 125 126 116 105 86 56 56 71 82 87 78 81 76 76 70 67 66 72 81 56 73 81 81 78 71 65
162 159 155 156 155 148 152 134 134 136 136 137 138 138 133 134 138 128 122 136 134 94 79 82 88 86 92 90 92 92 85 74 68 61 60 76 75 77 54 76 74 67 61
168 162 156 157 156 152 156 151 147 145 137 144 147 148 143 136 143 138 143 148 136 107 94 88 79 92 89 97 87 83 78 75 67 67 51 67 64 66 80 68 76 67 63
172 169 167 158 164 155 160 152 143 144 145 152 156 161 158 154 160 147 161 149 130 114 97 110 93 86 91 92 99 98 91 80 72 65 65 67 72 86 81 82 66 55 60
173 182 178 173 173 163 165 161 165 159 165 161 168 177 174 168 168 157 164 159 129 146 139 83 76 66 73 67 85 99 90 71 66 73 78 81 69 79 93 83 61 62 32
181 185 191 188 182 177 175 160 166 167 167 171 170 181 178 177 176 171 162 169 150 155 119 84 106 92 80 62 80 108 120 112 79 75 95 94 99 77 67 63 71 55 44
192 191 193 195 195 187 180 173 173 174 178 181 188 189 195 189 188 185 185 164 164 140 170 95 87 111 94 53 58 83 162 75 116 75 86 113 93 79 69 46 41 32 37
195 195 195 194 194 190 181 184 180 170 178 177 186 190 197 194 194 192 191 182 165 172 184 162 113 98 100 79 64 65 79 89 79 128 89 77 81 66 52 41 21 8 19
194 193 192 191 192 189 191 187 183 185 183 191 183 198 189 197 197 191 193 190 189 160 197 187 173 133 100 108 87 76 65 64 59 98 90 87 93 60 47 49 31 9 358
194 192 191 190 198 194 192 190 180 186 184 178 183 185 173 192 193 194 198 203 200 193 196 203 215 204 163 152 106 90 82 78 66 66 85 78 69 33 36 14 11 10 6